Bloomington, IN

2:51 AM EDT on June 24, 2017 (GMT -0400)
Monroe County

Weather History for KBMG - August, 2014

Change the Weather History Date:

Wednesday, August 20, 2014

  Actual Average Record
Temperature  
Mean Temperature 76 °F 73 °F  
Max Temperature 83 °F 85 °F 93 °F (2007)
Min Temperature 68 °F 61 °F 51 °F (2012)
Degree Days  
Heating Degree Days 0 0  
Month to date heating degree days 1 0  
Since 1 June heating degree days 9 17  
Since 1 July heating degree days 6 2  
Cooling Degree Days 11 8  
Month to date cooling degree days 125 175  
Year to date cooling degree days 680 741  
Since 1 June cooling degree days 554 659  
Growing Degree Days 25 (Base 50)    
Moisture  
Dew Point 69 °F    
Average Humidity 80    
Maximum Humidity 93    
Minimum Humidity 67    
Precipitation  
Precipitation 0.53 in 0.12 in 0.81 in (2004)
Month to date precipitation 1.87 2.13  
Year to date precipitation 29.39 31.80  
Sea Level Pressure  
Sea Level Pressure 29.91 in    
Wind  
Wind Speed 4 mph (West)    
Max Wind Speed 18 mph    
Max Gust Speed 24 mph    
Visibility 7 miles    
Events Fog , Rain , Thunderstorm    
T = Trace of Precipitation, MM = Missing Value Source: NWS Daily Summary

Daily Weather History Graph

Daily Weather History Graph

Search for Another Location

Airport or City:

Trip Planner

Search our weather history database for the weather conditions in past years. The results will help you decide how hot, cold, wet, or windy it might be!

Date:

Astronomy

Aug. 20, 2014 Rise Set
Actual Time 7:04 AM EDT 8:34 PM EDT
Civil Twilight 6:35 AM EDT 9:02 PM EDT
Nautical Twilight 6:02 AM EDT 9:36 PM EDT
Astronomical Twilight 5:26 AM EDT 10:12 PM EDT
Moon 2:44 AM EDT (8/20) 5:18 PM EDT (8/20)
Length of Visible Light 14h 26m
Length of Day
13h 30m
Waning Crescent, 21% of the Moon is Illuminated
Aug 20
Waning Crescent
Aug 25
New
Sep 2
First Quarter
Sep 8
Full
Sep 15
Last Quarter

Hourly Weather History & Observations

Time (EDT) Temp. Heat Index Dew Point Humidity Pressure Visibility Wind Dir Wind Speed Gust Speed Precip Events Conditions
12:13 AM 73.9 °F - 66.0 °F 76% 29.87 in 10.0 mi NNW 10.4 mph 19.6 mph N/A Thunderstorm Mostly Cloudy
12:37 AM 71.1 °F - 63.0 °F 75% 29.86 in 10.0 mi NNE 13.8 mph 24.2 mph N/A Thunderstorm Overcast
12:53 AM 70.0 °F - 66.0 °F 87% 29.85 in 3.0 mi NNW 8.1 mph - 0.11 in Rain , Thunderstorm Heavy Thunderstorms and Rain
12:56 AM 69.1 °F - 66.0 °F 90% 29.87 in 1.8 mi NW 11.5 mph 19.6 mph 0.09 in Rain , Thunderstorm Heavy Rain
1:30 AM 69.1 °F - 64.0 °F 84% 29.86 in 4.0 mi SW 17.3 mph - 0.64 in Rain , Thunderstorm Heavy Thunderstorms and Rain
1:53 AM 70.0 °F - 64.0 °F 81% 29.83 in 10.0 mi SSW 4.6 mph - 0.68 in Thunderstorm Thunderstorm
2:02 AM 68.0 °F - 64.0 °F 87% 29.86 in 10.0 mi WSW 8.1 mph - N/A Thunderstorm Scattered Clouds
2:19 AM 69.1 °F - 64.9 °F 87% 29.85 in 10.0 mi West 4.6 mph - N/A   Clear
2:53 AM 69.1 °F - 66.0 °F 90% 29.83 in 10.0 mi WSW 4.6 mph - N/A   Clear
3:30 AM 68.0 °F - 66.0 °F 93% 29.86 in 10.0 mi Calm Calm - N/A   Scattered Clouds
3:53 AM 68.0 °F - 66.0 °F 93% 29.84 in 10.0 mi Calm Calm - N/A   Scattered Clouds
4:51 AM 69.8 °F - 66.2 °F 88% 29.87 in 8.0 mi Calm Calm - N/A   Mostly Cloudy
4:53 AM 69.1 °F - 66.0 °F 90% 29.85 in 8.0 mi Calm Calm - N/A   Mostly Cloudy
5:36 AM 69.1 °F - 66.0 °F 90% 29.88 in 5.0 mi Calm Calm - N/A   Mostly Cloudy
5:53 AM 69.1 °F - 66.9 °F 93% 29.86 in 4.0 mi Calm Calm - N/A   Mostly Cloudy
6:24 AM 71.1 °F - 69.1 °F 93% 29.89 in 1.8 mi Calm Calm - N/A   Overcast
6:34 AM 71.1 °F - 69.1 °F 93% 29.90 in 0.2 mi Calm Calm - N/A Fog Fog
6:53 AM 72.0 °F - 70.0 °F 93% 29.88 in 0.2 mi Calm Calm - N/A Fog Fog
7:53 AM 72.0 °F - 70.0 °F 93% 29.88 in 0.2 mi SW 3.5 mph - N/A Fog Fog
8:53 AM 73.0 °F - 70.0 °F 90% 29.90 in 0.5 mi WSW 5.8 mph - N/A Fog Fog
9:22 AM 73.9 °F - 71.1 °F 91% 29.93 in 1.8 mi Variable 3.5 mph - N/A   Overcast
9:28 AM 75.0 °F - 72.0 °F 90% 29.94 in 3.0 mi WSW 3.5 mph - N/A   Overcast
9:53 AM 75.0 °F - 72.0 °F 90% 29.93 in 4.0 mi West 3.5 mph - N/A   Mostly Cloudy
10:16 AM 75.0 °F - 73.0 °F 94% 29.95 in 8.0 mi NW 3.5 mph - N/A   Mostly Cloudy
10:53 AM 78.1 °F - 73.0 °F 84% 29.94 in 6.0 mi West 4.6 mph - N/A   Mostly Cloudy
11:00 AM 78.1 °F - 73.0 °F 84% 29.96 in 10.0 mi West 4.6 mph - N/A   Partly Cloudy
11:53 AM 81.0 °F 85.2 °F 72.0 °F 74% 29.95 in 10.0 mi SW 4.6 mph - N/A   Clear
12:53 PM 82.9 °F 87.5 °F 71.1 °F 67% 29.94 in 10.0 mi Calm Calm - N/A   Partly Cloudy
1:53 PM 78.1 °F - 73.0 °F 84% 29.99 in 10.0 mi WNW 4.6 mph - N/A Thunderstorm Mostly Cloudy
2:32 PM 77.0 °F - 73.9 °F 90% 30.03 in 8.0 mi WNW 4.6 mph - 0.03 in Rain Light Rain
2:53 PM 78.1 °F - 73.9 °F 87% 30.02 in 9.0 mi WNW 10.4 mph - 0.03 in Rain Light Rain
3:53 PM 73.9 °F - 69.1 °F 85% 29.95 in 10.0 mi WSW 5.8 mph - 0.01 in Rain Light Rain
4:53 PM 77.0 °F - 69.1 °F 76% 29.93 in 10.0 mi West 6.9 mph - 0.01 in   Clear
5:53 PM 81.0 °F 83.8 °F 68.0 °F 65% 29.91 in 10.0 mi West 5.8 mph - N/A   Clear
6:53 PM 78.1 °F - 68.0 °F 71% 29.92 in 10.0 mi WSW 5.8 mph - N/A   Clear
7:53 PM 75.9 °F - 70.0 °F 82% 29.94 in 10.0 mi SW 3.5 mph - N/A   Clear
8:53 PM 73.0 °F - 69.1 °F 87% 29.96 in 10.0 mi Calm Calm - N/A   Scattered Clouds
9:53 PM 72.0 °F - 69.1 °F 91% 29.99 in 10.0 mi SSE 3.5 mph - N/A   Clear
10:53 PM 71.1 °F - 69.1 °F 93% 30.02 in 10.0 mi Calm Calm - N/A   Clear
11:53 PM 73.0 °F - 69.1 °F 87% 30.01 in 10.0 mi SW 5.8 mph - N/A   Clear